Location: Devore Heights
(34.2372°N, 117.4156°W)
Time: 19:45:29
(UTC+00:00)

Vanguard 1 Rocket - Pass Details

Date: 15 September 2024
Orbit: 650 x 4218 km, 34.3° (Epoch: 04 October)

Event Time Altitude Azimuth Distance (km) Brightness Sun altitude
Rises 10:02:09 0° 224° (SW) 4,708 - -40.9°
Reaches altitude 10° 10:04:43 10° 219° (SW) 4,060 - -40.5°
Exits shadow 10:13:48 52° 171° (S) 2,940 9.6 -39.1°
Maximum altitude 10:16:07 56° 144° (SE) 3,061 9.8 -38.7°
Drops below altitude 10° 10:37:13 10° 75° (ENE) 7,096 12.6 -35.2°
Sets 10:43:34 0° 72° (ENE) 8,364 13.3 -34.1°
